Location: Brachstadt
(48.6975°N, 10.6755°E)
Time: 05:38:32
(UTC+00:00)

Cosmos 2263 Rocket - Pass Details

Date: 18 September 2020
Orbit: 822 x 850 km, 71.0° (Epoch: 29 October)

Event Time Altitude Azimuth Distance (km) Brightness Sun altitude
Rises 19:32:11 0° 240° (WSW) 3,351 5.7 -21.2°
Reaches altitude 10° 19:34:53 10° 250° (WSW) 2,425 5.1 -21.6°
Maximum altitude 19:39:46 31° 312° (NW) 1,422 4.0 -22.3°
Drops below altitude 10° 19:44:43 10° 14° (NNE) 2,449 4.8 -23.0°
Sets 19:47:28 0° 25° (NNE) 3,391 5.4 -23.4°
